Time,TemperatureF,DewpointF,PressureIn,WindDirection,WindDirectionDegrees,WindSpeedMPH,WindSpeedGustMPH,Humidity,HourlyPrecipIn,Conditions,Clouds,dailyrainin,SoftwareType,DateUTC
2013-04-18 00:02:00,47.8,47.3,29.91,NW,315,6.0,6.0,98,0.08,,,1.91,meteohub,2013-04-18 05:02:00,
2013-04-18 00:07:00,47.8,47.3,29.91,WSW,248,2.0,6.0,98,0.08,,,0.00,meteohub,2013-04-18 05:07:00,
2013-04-18 00:12:00,47.7,47.1,29.91,WNW,292,6.0,7.0,98,0.08,,,0.00,meteohub,2013-04-18 05:12:00,
2013-04-18 00:17:00,47.7,47.1,29.91,NE,45,4.0,7.0,98,0.12,,,0.04,meteohub,2013-04-18 05:17:00,
2013-04-18 00:22:00,47.3,46.8,29.91,NW,315,8.0,14.0,98,0.08,,,0.04,meteohub,2013-04-18 05:22:00,
2013-04-18 00:27:00,47.1,46.6,29.91,NNW,338,7.0,14.0,98,0.08,,,0.04,meteohub,2013-04-18 05:27:00,
2013-04-18 00:32:00,46.9,46.4,29.91,North,0,13.0,14.0,98,0.08,,,0.04,meteohub,2013-04-18 05:32:00,
2013-04-18 00:37:00,46.6,46.0,29.91,NNW,338,11.0,14.0,98,0.13,,,0.09,meteohub,2013-04-18 05:37:00,
2013-04-18 00:42:00,46.4,45.9,29.91,NNW,338,11.0,14.0,98,0.09,,,0.09,meteohub,2013-04-18 05:42:00,
2013-04-18 00:47:00,46.2,45.7,29.91,SSE,158,6.0,16.0,98,0.13,,,0.13,meteohub,2013-04-18 05:47:00,
2013-04-18 00:52:00,46.0,45.5,29.91,NE,45,2.0,16.0,98,0.13,,,0.13,meteohub,2013-04-18 05:52:00,
2013-04-18 00:57:00,45.9,45.3,29.91,North,0,7.0,16.0,98,0.13,,,0.13,meteohub,2013-04-18 05:57:00,
2013-04-18 01:02:00,45.5,45.0,29.88,NE,45,5.0,12.0,98,0.17,,,0.17,meteohub,2013-04-18 06:02:00,
2013-04-18 01:07:00,45.3,44.8,29.88,North,0,4.0,13.0,98,0.17,,,0.17,meteohub,2013-04-18 06:07:00,
2013-04-18 01:12:00,45.1,44.6,29.88,North,0,13.0,13.0,98,0.13,,,0.17,meteohub,2013-04-18 06:12:00,
2013-04-18 01:17:00,44.8,44.2,29.88,West,270,5.0,19.0,98,0.17,,,0.21,meteohub,2013-04-18 06:17:00,
2013-04-18 01:22:00,44.8,44.2,29.88,NNW,338,8.0,19.0,98,0.17,,,0.21,meteohub,2013-04-18 06:22:00,
2013-04-18 01:27:00,44.6,44.1,29.88,West,270,10.0,20.0,98,0.21,,,0.25,meteohub,2013-04-18 06:27:00,
2013-04-18 01:32:00,44.4,43.9,29.91,NNW,338,4.0,20.0,98,0.20,,,0.29,meteohub,2013-04-18 06:32:00,
2013-04-18 01:37:00,44.4,43.9,29.91,North,0,14.0,20.0,98,0.20,,,0.29,meteohub,2013-04-18 06:37:00,
2013-04-18 01:42:00,44.4,43.9,29.91,West,270,16.0,16.0,98,0.24,,,0.33,meteohub,2013-04-18 06:42:00,
2013-04-18 01:47:00,44.4,43.9,29.85,NW,315,17.0,17.0,98,0.20,,,0.33,meteohub,2013-04-18 06:47:00,
2013-04-18 01:52:00,44.6,44.1,29.85,NNW,338,3.0,26.0,98,0.24,,,0.37,meteohub,2013-04-18 06:52:00,
2013-04-18 01:57:00,44.6,44.1,29.85,NNE,22,10.0,26.0,98,0.20,,,0.37,meteohub,2013-04-18 06:57:00,
2013-04-18 02:02:00,44.6,44.1,29.88,NNE,22,3.0,22.0,98,0.29,,,0.46,meteohub,2013-04-18 07:02:00,
2013-04-18 02:07:00,44.6,44.1,29.88,NNW,338,7.0,10.0,98,0.33,,,0.50,meteohub,2013-04-18 07:07:00,
2013-04-18 02:12:00,44.6,44.1,29.88,NE,45,2.0,10.0,98,0.37,,,0.58,meteohub,2013-04-18 07:12:00,
2013-04-18 02:17:00,44.8,44.2,29.85,East,90,7.0,10.0,98,0.42,,,0.58,meteohub,2013-04-18 07:17:00,
2013-04-18 02:22:00,44.8,44.2,29.85,NE,45,8.0,10.0,98,0.38,,,0.63,meteohub,2013-04-18 07:22:00,
2013-04-18 02:27:00,44.8,44.2,29.85,NNE,22,3.0,10.0,98,0.41,,,0.66,meteohub,2013-04-18 07:27:00,
2013-04-18 02:32:00,44.8,44.2,29.82,NE,45,0.0,10.0,98,0.37,,,0.66,meteohub,2013-04-18 07:32:00,
2013-04-18 02:37:00,44.8,44.2,29.82,East,90,4.0,10.0,98,0.37,,,0.66,meteohub,2013-04-18 07:37:00,
2013-04-18 02:42:00,45.0,44.4,29.82,ENE,68,4.0,6.0,98,0.38,,,0.71,meteohub,2013-04-18 07:42:00,
2013-04-18 02:47:00,45.1,44.6,29.85,ENE,68,6.0,6.0,98,0.34,,,0.71,meteohub,2013-04-18 07:47:00,
2013-04-18 02:52:00,45.1,44.6,29.85,NNE,22,0.0,7.0,98,0.38,,,0.75,meteohub,2013-04-18 07:52:00,
2013-04-18 02:58:00,45.3,44.8,29.85,ENE,68,5.0,9.0,98,0.37,,,0.75,meteohub,2013-04-18 07:58:00,
2013-04-18 03:02:00,45.3,44.8,29.79,NNE,22,2.0,9.0,98,0.33,,,0.79,meteohub,2013-04-18 08:02:00,
2013-04-18 03:08:00,45.5,45.0,29.79,NE,45,2.0,11.0,98,0.25,,,0.79,meteohub,2013-04-18 08:08:00,
2013-04-18 03:13:00,45.5,45.0,29.79,ENE,68,4.0,11.0,98,0.21,,,0.79,meteohub,2013-04-18 08:13:00,
2013-04-18 03:18:00,45.5,45.0,29.82,North,0,2.0,11.0,98,0.20,,,0.83,meteohub,2013-04-18 08:18:00,
2013-04-18 03:23:00,45.5,45.0,29.82,NE,45,0.0,7.0,98,0.17,,,0.83,meteohub,2013-04-18 08:23:00,
2013-04-18 03:28:00,45.5,45.0,29.82,NE,45,6.0,6.0,98,0.17,,,0.83,meteohub,2013-04-18 08:28:00,
2013-04-18 03:33:00,45.5,45.0,29.82,NNW,338,6.0,6.0,98,0.21,,,0.87,meteohub,2013-04-18 08:33:00,
2013-04-18 03:38:00,45.7,45.1,29.82,ENE,68,0.0,7.0,98,0.21,,,0.87,meteohub,2013-04-18 08:38:00,
2013-04-18 03:43:00,45.7,45.1,29.82,NNE,22,3.0,7.0,98,0.16,,,0.87,meteohub,2013-04-18 08:43:00,
2013-04-18 03:48:00,45.7,45.1,29.79,NE,45,5.0,7.0,98,0.20,,,0.91,meteohub,2013-04-18 08:48:00,
2013-04-18 03:53:00,45.9,45.3,29.79,North,0,0.0,7.0,98,0.16,,,0.91,meteohub,2013-04-18 08:53:00,
2013-04-18 03:58:00,45.9,45.3,29.79,NNE,22,3.0,7.0,98,0.12,,,0.91,meteohub,2013-04-18 08:58:00,
2013-04-18 04:03:00,45.9,45.3,29.79,ENE,68,6.0,7.0,98,0.17,,,0.96,meteohub,2013-04-18 09:03:00,
2013-04-18 04:08:00,45.9,45.3,29.79,NNE,22,0.0,6.0,98,0.17,,,0.96,meteohub,2013-04-18 09:08:00,
2013-04-18 04:13:00,46.0,45.5,29.79,ESE,112,0.0,6.0,98,0.13,,,0.96,meteohub,2013-04-18 09:13:00,
2013-04-18 04:18:00,46.0,45.5,29.79,ENE,68,0.0,6.0,98,0.13,,,0.96,meteohub,2013-04-18 09:18:00,
2013-04-18 04:23:00,46.0,45.5,29.79,East,90,0.0,4.0,98,0.13,,,0.96,meteohub,2013-04-18 09:23:00,
2013-04-18 04:28:00,46.0,45.5,29.79,NE,45,0.0,4.0,98,0.13,,,1.00,meteohub,2013-04-18 09:28:00,
2013-04-18 04:33:00,46.2,45.7,29.79,East,90,0.0,4.0,98,0.13,,,1.00,meteohub,2013-04-18 09:33:00,
2013-04-18 04:38:00,46.2,45.7,29.79,ENE,68,4.0,4.0,98,0.13,,,1.00,meteohub,2013-04-18 09:38:00,
2013-04-18 04:43:00,46.2,45.7,29.79,ENE,68,5.0,5.0,98,0.09,,,1.00,meteohub,2013-04-18 09:43:00,
2013-04-18 04:48:00,46.4,45.9,29.73,East,90,5.0,8.0,98,0.13,,,1.04,meteohub,2013-04-18 09:48:00,
2013-04-18 04:53:00,46.4,45.9,29.73,East,90,8.0,8.0,98,0.17,,,1.04,meteohub,2013-04-18 09:53:00,
2013-04-18 04:58:00,46.6,46.0,29.73,East,90,7.0,8.0,98,0.12,,,1.08,meteohub,2013-04-18 09:58:00,
2013-04-18 05:03:00,46.6,46.0,29.73,ENE,68,3.0,8.0,98,0.12,,,1.08,meteohub,2013-04-18 10:03:00,
2013-04-18 05:08:00,46.8,46.2,29.73,East,90,5.0,8.0,98,0.12,,,1.08,meteohub,2013-04-18 10:08:00,
2013-04-18 05:13:00,47.1,46.6,29.73,SE,135,5.0,7.0,98,0.12,,,1.08,meteohub,2013-04-18 10:13:00,
2013-04-18 05:18:00,47.1,46.6,29.70,East,90,4.0,6.0,98,0.12,,,1.08,meteohub,2013-04-18 10:18:00,
2013-04-18 05:23:00,47.3,46.8,29.70,ENE,68,4.0,6.0,98,0.08,,,1.08,meteohub,2013-04-18 10:23:00,
2013-04-18 05:28:00,47.5,46.9,29.70,ENE,68,7.0,7.0,98,0.08,,,1.08,meteohub,2013-04-18 10:28:00,
2013-04-18 05:33:00,47.5,46.9,29.68,ENE,68,4.0,7.0,98,0.08,,,1.08,meteohub,2013-04-18 10:33:00,
2013-04-18 05:38:00,47.8,47.3,29.68,East,90,5.0,7.0,98,0.08,,,1.08,meteohub,2013-04-18 10:38:00,
2013-04-18 05:43:00,48.0,47.5,29.68,ESE,112,4.0,7.0,98,0.08,,,1.12,meteohub,2013-04-18 10:43:00,
2013-04-18 05:48:00,48.4,47.8,29.70,ESE,112,5.0,6.0,98,0.08,,,1.12,meteohub,2013-04-18 10:48:00,
2013-04-18 05:53:00,48.4,47.8,29.70,ESE,112,11.0,11.0,98,0.08,,,1.16,meteohub,2013-04-18 10:53:00,
2013-04-18 05:58:00,48.4,47.8,29.70,SSE,158,7.0,11.0,98,0.08,,,1.16,meteohub,2013-04-18 10:58:00,
2013-04-18 06:03:00,48.6,48.0,29.68,East,90,6.0,11.0,98,0.12,,,1.16,meteohub,2013-04-18 11:03:00,
2013-04-18 06:08:00,48.7,48.2,29.68,ESE,112,10.0,11.0,98,0.12,,,1.20,meteohub,2013-04-18 11:08:00,
2013-04-18 06:13:00,48.9,48.4,29.68,East,90,10.0,11.0,98,0.16,,,1.24,meteohub,2013-04-18 11:13:00,
2013-04-18 06:18:00,49.1,48.6,29.70,South,180,10.0,10.0,98,0.16,,,1.24,meteohub,2013-04-18 11:18:00,
2013-04-18 06:24:00,49.1,48.6,29.70,SE,135,7.0,12.0,98,0.21,,,1.29,meteohub,2013-04-18 11:24:00,
2013-04-18 06:29:00,49.3,48.7,29.70,NNE,22,13.0,13.0,98,0.21,,,1.29,meteohub,2013-04-18 11:29:00,
2013-04-18 06:34:00,49.3,48.7,29.70,SE,135,10.0,14.0,98,0.21,,,1.29,meteohub,2013-04-18 11:34:00,
2013-04-18 06:39:00,49.3,48.7,29.70,East,90,6.0,14.0,98,0.17,,,1.29,meteohub,2013-04-18 11:39:00,
2013-04-18 06:44:00,49.3,48.7,29.70,SE,135,10.0,14.0,98,0.21,,,1.33,meteohub,2013-04-18 11:44:00,
2013-04-18 06:49:00,49.1,48.6,29.70,ESE,112,7.0,11.0,98,0.21,,,1.33,meteohub,2013-04-18 11:49:00,
2013-04-18 06:54:00,49.1,48.6,29.70,SE,135,6.0,10.0,98,0.17,,,1.33,meteohub,2013-04-18 11:54:00,
2013-04-18 06:59:00,49.1,48.6,29.70,SE,135,6.0,11.0,98,0.17,,,1.33,meteohub,2013-04-18 11:59:00,
2013-04-18 07:04:00,49.1,48.6,29.70,East,90,8.0,11.0,98,0.17,,,1.37,meteohub,2013-04-18 12:04:00,
2013-04-18 07:09:00,49.1,48.6,29.70,East,90,7.0,11.0,98,0.13,,,1.37,meteohub,2013-04-18 12:09:00,
2013-04-18 07:14:00,49.3,48.7,29.70,SE,135,7.0,10.0,98,0.13,,,1.37,meteohub,2013-04-18 12:14:00,
2013-04-18 07:19:00,49.3,48.7,29.68,ESE,112,4.0,13.0,98,0.08,,,1.37,meteohub,2013-04-18 12:19:00,
2013-04-18 07:24:00,49.3,48.7,29.68,ESE,112,6.0,13.0,98,0.12,,,1.41,meteohub,2013-04-18 12:24:00,
2013-04-18 07:29:00,49.3,48.7,29.68,ESE,112,4.0,13.0,98,0.12,,,1.41,meteohub,2013-04-18 12:29:00,
2013-04-18 07:34:00,49.3,48.7,29.68,East,90,3.0,8.0,98,0.12,,,1.41,meteohub,2013-04-18 12:34:00,
2013-04-18 07:39:00,49.3,48.7,29.68,East,90,5.0,6.0,98,0.08,,,1.41,meteohub,2013-04-18 12:39:00,
2013-04-18 07:44:00,49.5,48.9,29.68,ESE,112,5.0,6.0,98,0.08,,,1.41,meteohub,2013-04-18 12:44:00,
2013-04-18 07:49:00,49.5,48.9,29.68,ESE,112,0.0,7.0,98,0.12,,,1.45,meteohub,2013-04-18 12:49:00,
2013-04-18 07:54:00,49.5,48.9,29.68,ESE,112,0.0,7.0,98,0.12,,,1.45,meteohub,2013-04-18 12:54:00,
2013-04-18 07:59:00,49.5,48.9,29.68,ESE,112,0.0,7.0,98,0.08,,,1.45,meteohub,2013-04-18 12:59:00,
2013-04-18 08:04:00,49.5,48.9,29.68,ESE,112,0.0,3.0,98,0.08,,,1.45,meteohub,2013-04-18 13:04:00,
2013-04-18 08:09:00,49.5,48.9,29.68,ESE,112,0.0,3.0,98,0.08,,,1.45,meteohub,2013-04-18 13:09:00,
2013-04-18 08:14:00,49.6,49.1,29.68,SSE,158,0.0,3.0,98,0.08,,,1.45,meteohub,2013-04-18 13:14:00,
2013-04-18 08:19:00,49.6,49.1,29.68,West,270,0.0,0.0,98,0.04,,,1.45,meteohub,2013-04-18 13:19:00,
2013-04-18 08:24:00,49.8,49.3,29.68,WSW,248,3.0,0.0,98,0.09,,,1.50,meteohub,2013-04-18 13:24:00,
2013-04-18 08:29:00,49.8,49.3,29.68,WSW,248,0.0,0.0,98,0.09,,,1.50,meteohub,2013-04-18 13:29:00,
2013-04-18 08:34:00,50.0,49.5,29.68,SSW,202,0.0,4.0,98,0.09,,,1.50,meteohub,2013-04-18 13:34:00,
2013-04-18 08:39:00,50.0,49.5,29.68,WSW,248,3.0,4.0,98,0.09,,,1.50,meteohub,2013-04-18 13:39:00,
2013-04-18 08:44:00,50.2,49.6,29.68,WSW,248,3.0,4.0,98,0.05,,,1.50,meteohub,2013-04-18 13:44:00,
2013-04-18 08:49:00,50.2,49.6,29.68,SW,225,0.0,3.0,98,0.05,,,1.50,meteohub,2013-04-18 13:49:00,
2013-04-18 08:54:00,50.2,49.6,29.68,SW,225,0.0,4.0,98,0.05,,,1.50,meteohub,2013-04-18 13:54:00,
2013-04-18 08:59:00,50.5,50.0,29.68,East,90,4.0,4.0,98,0.05,,,1.50,meteohub,2013-04-18 13:59:00,
2013-04-18 09:04:00,50.5,50.0,29.65,ENE,68,3.0,4.0,98,0.05,,,1.50,meteohub,2013-04-18 14:04:00,
2013-04-18 09:09:00,50.5,50.0,29.65,ENE,68,4.0,4.0,98,0.05,,,1.50,meteohub,2013-04-18 14:09:00,
2013-04-18 09:14:00,50.7,50.2,29.65,NE,45,0.0,6.0,98,0.05,,,1.50,meteohub,2013-04-18 14:14:00,
2013-04-18 09:19:00,50.7,50.2,29.65,NNE,22,0.0,6.0,98,0.00,,,1.50,meteohub,2013-04-18 14:19:00,
2013-04-18 09:24:00,50.9,50.4,29.65,NNW,338,5.0,6.0,98,0.00,,,1.50,meteohub,2013-04-18 14:24:00,
2013-04-18 09:29:00,50.9,50.4,29.65,North,0,3.0,5.0,98,0.00,,,1.50,meteohub,2013-04-18 14:29:00,
2013-04-18 09:34:00,51.1,50.5,29.70,North,0,3.0,6.0,98,0.00,,,1.50,meteohub,2013-04-18 14:34:00,
2013-04-18 09:39:00,51.3,50.7,29.70,West,270,6.0,6.0,98,0.00,,,1.50,meteohub,2013-04-18 14:39:00,
2013-04-18 09:44:00,51.3,50.7,29.70,NNW,338,7.0,8.0,98,0.00,,,1.50,meteohub,2013-04-18 14:44:00,
2013-04-18 09:49:00,51.6,51.1,29.70,WSW,248,6.0,8.0,98,0.00,,,1.50,meteohub,2013-04-18 14:49:00,
2013-04-18 09:54:00,51.8,51.3,29.70,NNW,338,4.0,7.0,98,0.00,,,1.50,meteohub,2013-04-18 14:54:00,
2013-04-18 09:59:00,52.0,51.4,29.70,North,0,5.0,7.0,98,0.00,,,1.50,meteohub,2013-04-18 14:59:00,
2013-04-18 10:04:00,52.5,52.0,29.70,North,0,5.0,9.0,98,0.00,,,1.50,meteohub,2013-04-18 15:04:00,
2013-04-18 10:10:00,52.7,52.2,29.70,NNW,338,4.0,9.0,98,0.00,,,1.50,meteohub,2013-04-18 15:10:00,
2013-04-18 10:15:00,52.9,52.3,29.70,ENE,68,0.0,9.0,98,0.00,,,1.50,meteohub,2013-04-18 15:15:00,
2013-04-18 10:20:00,53.1,52.5,29.68,East,90,7.0,8.0,98,0.00,,,1.50,meteohub,2013-04-18 15:20:00,
2013-04-18 10:25:00,53.1,52.5,29.68,NNW,338,7.0,7.0,98,0.00,,,1.50,meteohub,2013-04-18 15:25:00,
2013-04-18 10:30:00,53.2,52.7,29.68,NE,45,6.0,7.0,98,0.00,,,1.50,meteohub,2013-04-18 15:30:00,
2013-04-18 10:35:00,53.2,52.7,29.65,West,270,2.0,7.0,98,0.00,,,1.50,meteohub,2013-04-18 15:35:00,
2013-04-18 10:40:00,53.4,52.9,29.65,NNW,338,0.0,8.0,98,0.00,,,1.50,meteohub,2013-04-18 15:40:00,
2013-04-18 10:45:00,53.4,52.9,29.65,NE,45,4.0,8.0,98,0.00,,,1.50,meteohub,2013-04-18 15:45:00,
2013-04-18 10:50:00,53.6,53.1,29.68,ENE,68,2.0,8.0,98,0.00,,,1.50,meteohub,2013-04-18 15:50:00,
2013-04-18 10:55:00,53.8,53.2,29.68,ENE,68,4.0,6.0,98,0.00,,,1.50,meteohub,2013-04-18 15:55:00,
2013-04-18 11:00:00,54.0,53.4,29.68,North,0,4.0,10.0,98,0.00,,,1.50,meteohub,2013-04-18 16:00:00,
2013-04-18 11:05:00,54.1,53.6,29.68,ENE,68,2.0,10.0,98,0.00,,,1.50,meteohub,2013-04-18 16:05:00,
2013-04-18 11:10:00,54.3,53.8,29.68,ENE,68,2.0,10.0,98,0.00,,,1.50,meteohub,2013-04-18 16:10:00,
2013-04-18 11:15:00,54.7,54.1,29.70,ENE,68,2.0,9.0,98,0.00,,,1.50,meteohub,2013-04-18 16:15:00,
2013-04-18 11:20:00,54.7,54.1,29.70,East,90,3.0,5.0,98,0.00,,,1.50,meteohub,2013-04-18 16:20:00,
2013-04-18 11:25:00,54.7,54.1,29.70,East,90,0.0,4.0,98,0.00,,,1.50,meteohub,2013-04-18 16:25:00,
2013-04-18 11:30:00,54.7,54.1,29.68,East,90,2.0,5.0,98,0.00,,,1.50,meteohub,2013-04-18 16:30:00,
2013-04-18 11:35:00,54.9,54.3,29.68,East,90,4.0,5.0,98,0.00,,,1.50,meteohub,2013-04-18 16:35:00,
2013-04-18 11:40:00,54.9,54.3,29.68,East,90,2.0,5.0,98,0.00,,,1.50,meteohub,2013-04-18 16:40:00,
2013-04-18 11:45:00,55.0,54.5,29.68,East,90,5.0,5.0,98,0.00,,,1.50,meteohub,2013-04-18 16:45:00,
2013-04-18 11:50:00,55.0,54.5,29.68,ESE,112,5.0,5.0,98,0.00,,,1.50,meteohub,2013-04-18 16:50:00,
2013-04-18 11:55:00,55.2,54.7,29.68,East,90,5.0,5.0,98,0.00,,,1.50,meteohub,2013-04-18 16:55:00,
2013-04-18 12:00:00,55.0,54.5,29.68,SE,135,8.0,8.0,98,0.00,,,1.50,meteohub,2013-04-18 17:00:00,
2013-04-18 12:05:00,55.0,54.5,29.68,SE,135,6.0,8.0,98,0.00,,,1.50,meteohub,2013-04-18 17:05:00,
2013-04-18 12:10:00,55.0,54.5,29.68,SE,135,6.0,8.0,98,0.00,,,1.50,meteohub,2013-04-18 17:10:00,
2013-04-18 12:15:00,55.2,54.7,29.68,SE,135,4.0,8.0,98,0.00,,,1.50,meteohub,2013-04-18 17:15:00,
2013-04-18 12:20:00,55.2,54.7,29.68,SE,135,3.0,7.0,98,0.00,,,1.50,meteohub,2013-04-18 17:20:00,
2013-04-18 12:25:00,55.2,54.7,29.68,East,90,4.0,7.0,98,0.00,,,1.50,meteohub,2013-04-18 17:25:00,
2013-04-18 12:30:00,55.2,54.7,29.68,East,90,4.0,7.0,98,0.00,,,1.50,meteohub,2013-04-18 17:30:00,
2013-04-18 12:35:00,55.4,54.9,29.65,East,90,7.0,7.0,98,0.00,,,1.50,meteohub,2013-04-18 17:35:00,
2013-04-18 12:40:00,55.6,55.0,29.65,East,90,7.0,7.0,98,0.00,,,1.50,meteohub,2013-04-18 17:40:00,
2013-04-18 12:45:00,55.6,55.0,29.59,East,90,6.0,10.0,98,0.00,,,1.50,meteohub,2013-04-18 17:45:00,
2013-04-18 12:50:00,55.8,55.2,29.59,ESE,112,13.0,13.0,98,0.00,,,1.50,meteohub,2013-04-18 17:50:00,
2013-04-18 12:55:00,55.9,55.4,29.59,ESE,112,12.0,13.0,98,0.00,,,1.50,meteohub,2013-04-18 17:55:00,
2013-04-18 13:00:00,56.1,55.6,29.65,SSE,158,7.0,13.0,98,0.00,,,1.50,meteohub,2013-04-18 18:00:00,
2013-04-18 13:05:00,56.3,55.8,29.65,SE,135,8.0,14.0,98,0.00,,,1.50,meteohub,2013-04-18 18:05:00,
2013-04-18 13:10:00,56.5,55.9,29.65,SE,135,9.0,14.0,98,0.00,,,1.50,meteohub,2013-04-18 18:10:00,
2013-04-18 13:11:00,56.7,56.1,29.65,East,90,14.0,14.0,98,0.00,,,1.50,meteohub,2013-04-18 18:11:00,
2013-04-18 13:17:00,56.7,56.1,29.59,ESE,112,9.0,14.0,98,0.00,,,1.50,meteohub,2013-04-18 18:17:00,
2013-04-18 13:22:00,56.8,56.3,29.59,SSE,158,5.0,16.0,98,0.00,,,1.50,meteohub,2013-04-18 18:22:00,
2013-04-18 13:27:00,57.0,56.5,29.59,SE,135,9.0,16.0,98,0.00,,,1.50,meteohub,2013-04-18 18:27:00,
2013-04-18 13:32:00,57.2,56.7,29.56,ESE,112,10.0,16.0,98,0.00,,,1.50,meteohub,2013-04-18 18:32:00,
2013-04-18 13:37:00,57.6,57.0,29.56,ESE,112,18.0,18.0,98,0.00,,,1.50,meteohub,2013-04-18 18:37:00,
2013-04-18 13:42:00,57.6,57.0,29.56,SSE,158,9.0,18.0,98,0.00,,,1.50,meteohub,2013-04-18 18:42:00,
2013-04-18 13:47:00,57.9,57.4,29.56,SSW,202,8.0,18.0,98,0.00,,,1.50,meteohub,2013-04-18 18:47:00,
2013-04-18 13:52:00,58.1,57.6,29.56,South,180,4.0,18.0,98,0.00,,,1.50,meteohub,2013-04-18 18:52:00,
2013-04-18 13:57:00,58.1,57.6,29.56,WSW,248,4.0,13.0,98,0.00,,,1.50,meteohub,2013-04-18 18:57:00,
2013-04-18 14:02:00,58.3,57.7,29.59,SW,225,3.0,10.0,98,0.00,,,1.50,meteohub,2013-04-18 19:02:00,
2013-04-18 14:07:00,58.5,57.9,29.59,South,180,4.0,8.0,98,0.00,,,1.50,meteohub,2013-04-18 19:07:00,
2013-04-18 14:12:00,58.5,57.9,29.59,SSE,158,4.0,8.0,98,0.00,,,1.50,meteohub,2013-04-18 19:12:00,
2013-04-18 14:17:00,58.6,58.1,29.59,WSW,248,3.0,7.0,98,0.00,,,1.50,meteohub,2013-04-18 19:17:00,
2013-04-18 14:22:00,58.6,58.1,29.59,SE,135,3.0,7.0,98,0.00,,,1.50,meteohub,2013-04-18 19:22:00,
2013-04-18 14:27:00,58.8,58.3,29.59,South,180,4.0,6.0,98,0.00,,,1.50,meteohub,2013-04-18 19:27:00,
2013-04-18 14:32:00,58.8,58.3,29.56,SSE,158,6.0,7.0,98,0.00,,,1.50,meteohub,2013-04-18 19:32:00,
2013-04-18 14:37:00,59.0,58.5,29.56,South,180,7.0,7.0,98,0.00,,,1.50,meteohub,2013-04-18 19:37:00,
2013-04-18 14:42:00,59.4,58.8,29.56,WSW,248,2.0,8.0,98,0.00,,,1.50,meteohub,2013-04-18 19:42:00,
2013-04-18 14:47:00,59.5,59.0,29.59,South,180,4.0,10.0,98,0.00,,,1.50,meteohub,2013-04-18 19:47:00,
2013-04-18 14:52:00,59.7,59.2,29.59,SSE,158,4.0,10.0,98,0.00,,,1.50,meteohub,2013-04-18 19:52:00,
2013-04-18 14:57:00,59.9,59.4,29.59,SSE,158,6.0,10.0,98,0.00,,,1.50,meteohub,2013-04-18 19:57:00,
2013-04-18 15:02:00,60.1,59.5,29.59,SE,135,4.0,9.0,98,0.00,,,1.50,meteohub,2013-04-18 20:02:00,
2013-04-18 15:07:00,60.1,59.5,29.59,SE,135,6.0,9.0,98,0.00,,,1.50,meteohub,2013-04-18 20:07:00,
2013-04-18 15:12:00,60.3,59.7,29.59,SSE,158,10.0,10.0,98,0.00,,,1.50,meteohub,2013-04-18 20:12:00,
2013-04-18 15:17:00,60.3,59.7,29.59,SE,135,9.0,13.0,98,0.00,,,1.50,meteohub,2013-04-18 20:17:00,
2013-04-18 15:22:00,60.4,59.9,29.59,SSE,158,12.0,13.0,98,0.00,,,1.50,meteohub,2013-04-18 20:22:00,
2013-04-18 15:27:00,60.4,59.9,29.59,SE,135,9.0,12.0,98,0.00,,,1.50,meteohub,2013-04-18 20:27:00,
2013-04-18 15:32:00,60.6,60.1,29.56,NNE,22,7.0,14.0,98,0.00,,,1.50,meteohub,2013-04-18 20:32:00,
2013-04-18 15:37:00,60.6,60.1,29.56,SE,135,6.0,14.0,98,0.00,,,1.50,meteohub,2013-04-18 20:37:00,
2013-04-18 15:42:00,60.6,60.1,29.56,SE,135,7.0,14.0,98,0.00,,,1.50,meteohub,2013-04-18 20:42:00,
2013-04-18 15:47:00,60.6,60.1,29.56,SE,135,7.0,12.0,98,0.00,,,1.50,meteohub,2013-04-18 20:47:00,
2013-04-18 15:52:00,60.6,60.1,29.56,SE,135,7.0,7.0,98,0.00,,,1.50,meteohub,2013-04-18 20:52:00,
2013-04-18 15:57:00,60.6,60.1,29.56,SE,135,7.0,-999.0,98,0.00,,,1.50,meteohub,2013-04-18 20:57:00,
2013-04-18 16:02:00,60.6,60.1,29.56,SE,135,7.0,-999.0,98,0.00,,,1.50,meteohub,2013-04-18 21:02:00,
2013-04-18 16:22:00,61.3,60.8,29.56,NNE,22,10.0,-999.0,98,0.00,,,1.50,meteohub,2013-04-18 21:22:00,
2013-04-18 16:27:00,61.3,60.8,29.56,ESE,112,13.0,17.0,98,0.00,,,1.50,meteohub,2013-04-18 21:27:00,
2013-04-18 16:32:00,61.5,61.0,29.53,SE,135,9.0,20.0,98,0.00,,,1.50,meteohub,2013-04-18 21:32:00,
2013-04-18 16:37:00,61.7,61.2,29.53,SSE,158,7.0,20.0,98,0.00,,,1.50,meteohub,2013-04-18 21:37:00,
2013-04-18 16:42:00,61.7,61.2,29.53,SSE,158,10.0,20.0,98,0.00,,,1.50,meteohub,2013-04-18 21:42:00,
2013-04-18 16:47:00,61.7,61.2,29.53,SSW,202,13.0,16.0,98,0.00,,,1.50,meteohub,2013-04-18 21:47:00,
2013-04-18 16:52:00,61.5,61.0,29.53,SSE,158,14.0,14.0,98,0.00,,,1.50,meteohub,2013-04-18 21:52:00,
2013-04-18 16:57:00,61.3,60.8,29.53,SE,135,10.0,14.0,98,0.03,,,1.53,meteohub,2013-04-18 21:57:00,
2013-04-18 17:02:00,61.2,60.6,29.53,SSE,158,13.0,17.0,98,0.03,,,1.53,meteohub,2013-04-18 22:02:00,
2013-04-18 17:07:00,61.0,60.4,29.53,SSW,202,26.0,26.0,98,0.03,,,1.53,meteohub,2013-04-18 22:07:00,
2013-04-18 17:12:00,61.0,60.4,29.53,SSE,158,8.0,26.0,98,0.03,,,1.53,meteohub,2013-04-18 22:12:00,
2013-04-18 17:17:00,60.8,60.3,29.53,SE,135,13.0,26.0,98,0.03,,,1.53,meteohub,2013-04-18 22:17:00,
2013-04-18 17:22:00,60.6,60.1,29.53,SSE,158,13.0,26.0,98,0.03,,,1.53,meteohub,2013-04-18 22:22:00,
2013-04-18 17:27:00,60.8,60.3,29.53,SSE,158,7.0,18.0,98,0.03,,,1.53,meteohub,2013-04-18 22:27:00,
2013-04-18 17:32:00,60.8,60.3,29.53,SE,135,18.0,18.0,98,0.03,,,1.53,meteohub,2013-04-18 22:32:00,
2013-04-18 17:37:00,60.8,60.3,29.53,SSE,158,10.0,18.0,98,0.03,,,1.53,meteohub,2013-04-18 22:37:00,
2013-04-18 17:42:00,60.8,60.3,29.53,SSE,158,13.0,18.0,98,0.03,,,1.53,meteohub,2013-04-18 22:42:00,
2013-04-18 17:47:00,60.8,60.3,29.53,West,270,10.0,18.0,98,0.03,,,1.53,meteohub,2013-04-18 22:47:00,
2013-04-18 17:52:00,60.6,60.1,29.53,West,270,8.0,18.0,98,0.03,,,1.53,meteohub,2013-04-18 22:52:00,
2013-04-18 17:57:00,60.1,59.5,29.53,NE,45,9.0,18.0,98,0.00,,,1.53,meteohub,2013-04-18 22:57:00,
2013-04-18 18:02:00,59.5,58.6,29.53,WNW,292,5.0,18.0,97,0.00,,,1.53,meteohub,2013-04-18 23:02:00,
2013-04-18 18:07:00,59.0,57.6,29.53,SSE,158,9.0,18.0,95,0.00,,,1.53,meteohub,2013-04-18 23:07:00,
2013-04-18 18:12:00,58.1,56.3,29.53,South,180,9.0,13.0,94,0.00,,,1.53,meteohub,2013-04-18 23:12:00,
2013-04-18 18:17:00,56.7,54.1,29.53,West,270,16.0,16.0,91,0.00,,,1.53,meteohub,2013-04-18 23:17:00,
2013-04-18 18:22:00,55.9,53.1,29.53,East,90,10.0,20.0,90,0.00,,,1.53,meteohub,2013-04-18 23:22:00,
2013-04-18 18:27:00,54.9,51.6,29.53,SSW,202,17.0,20.0,89,0.00,,,1.53,meteohub,2013-04-18 23:27:00,
2013-04-18 18:32:00,54.0,50.5,29.56,West,270,10.0,21.0,88,0.00,,,1.53,meteohub,2013-04-18 23:32:00,
2013-04-18 18:37:00,53.1,49.3,29.56,SSW,202,7.0,26.0,87,0.00,,,1.53,meteohub,2013-04-18 23:37:00,
2013-04-18 18:43:00,52.3,48.6,29.56,WSW,248,7.0,26.0,87,0.00,,,1.53,meteohub,2013-04-18 23:43:00,
2013-04-18 18:48:00,51.4,47.5,29.59,ESE,112,14.0,36.0,86,0.00,,,1.53,meteohub,2013-04-18 23:48:00,
2013-04-18 18:53:00,50.7,46.8,29.59,West,270,18.0,36.0,86,0.00,,,1.53,meteohub,2013-04-18 23:53:00,
2013-04-18 18:58:00,50.2,46.2,29.59,West,270,11.0,36.0,86,0.00,,,1.53,meteohub,2013-04-18 23:58:00,
2013-04-18 19:03:00,50.0,46.0,29.59,West,270,10.0,28.0,86,0.00,,,1.53,meteohub,2013-04-19 00:03:00,
2013-04-18 19:08:00,49.6,45.9,29.59,ESE,112,32.0,32.0,87,0.00,,,1.53,meteohub,2013-04-19 00:08:00,
2013-04-18 19:13:00,48.9,45.0,29.59,NW,315,12.0,34.0,86,0.00,,,1.53,meteohub,2013-04-19 00:13:00,
2013-04-18 19:18:00,48.7,44.8,29.59,SSE,158,6.0,34.0,86,0.00,,,1.53,meteohub,2013-04-19 00:18:00,
2013-04-18 19:23:00,48.6,44.2,29.59,NNW,338,15.0,34.0,85,0.00,,,1.53,meteohub,2013-04-19 00:23:00,
2013-04-18 19:28:00,48.0,43.7,29.59,ESE,112,11.0,21.0,85,0.00,,,1.53,meteohub,2013-04-19 00:28:00,
2013-04-18 19:33:00,47.7,43.3,29.56,WSW,248,12.0,23.0,85,0.00,,,1.53,meteohub,2013-04-19 00:33:00,
2013-04-18 19:38:00,47.3,42.8,29.56,NE,45,25.0,33.0,84,0.00,,,1.53,meteohub,2013-04-19 00:38:00,
2013-04-18 19:43:00,47.1,42.3,29.56,NW,315,18.0,34.0,83,0.00,,,1.53,meteohub,2013-04-19 00:43:00,
2013-04-18 19:48:00,46.9,42.1,29.59,SSW,202,10.0,34.0,83,0.00,,,1.53,meteohub,2013-04-19 00:48:00,
2013-04-18 19:53:00,46.8,41.9,29.59,SW,225,20.0,34.0,83,0.00,,,1.53,meteohub,2013-04-19 00:53:00,
2013-04-18 19:58:00,46.4,41.2,29.59,North,0,14.0,26.0,82,0.00,,,1.53,meteohub,2013-04-19 00:58:00,
2013-04-18 20:03:00,46.2,41.4,29.62,West,270,21.0,37.0,83,0.00,,,1.53,meteohub,2013-04-19 01:03:00,
2013-04-18 20:08:00,46.0,41.2,29.62,West,270,34.0,37.0,83,0.00,,,1.53,meteohub,2013-04-19 01:08:00,
2013-04-18 20:13:00,46.0,41.2,29.62,South,180,7.0,37.0,83,0.00,,,1.53,meteohub,2013-04-19 01:13:00,
2013-04-18 20:18:00,45.9,41.0,29.65,WSW,248,10.0,34.0,83,0.00,,,1.53,meteohub,2013-04-19 01:18:00,
2013-04-18 20:23:00,45.7,40.5,29.65,West,270,10.0,34.0,82,0.00,,,1.53,meteohub,2013-04-19 01:23:00,
2013-04-18 20:28:00,45.3,39.9,29.65,WNW,292,14.0,24.0,81,0.00,,,1.53,meteohub,2013-04-19 01:28:00,
2013-04-18 20:33:00,45.1,39.7,29.62,ENE,68,10.0,16.0,81,0.00,,,1.53,meteohub,2013-04-19 01:33:00,
2013-04-18 20:38:00,44.8,38.3,29.62,North,0,5.0,21.0,78,0.00,,,1.53,meteohub,2013-04-19 01:38:00,
2013-04-18 20:43:00,44.4,37.8,29.62,WSW,248,24.0,26.0,77,0.00,,,1.53,meteohub,2013-04-19 01:43:00,
2013-04-18 20:48:00,44.1,37.0,29.65,SE,135,14.0,30.0,76,0.00,,,1.53,meteohub,2013-04-19 01:48:00,
2013-04-18 20:53:00,43.9,36.9,29.65,NNW,338,6.0,30.0,76,0.00,,,1.53,meteohub,2013-04-19 01:53:00,
2013-04-18 20:58:00,43.7,36.7,29.65,East,90,22.0,28.0,76,0.00,,,1.53,meteohub,2013-04-19 01:58:00,
2013-04-18 21:03:00,43.5,36.1,29.65,West,270,22.0,28.0,75,0.00,,,1.53,meteohub,2013-04-19 02:03:00,
2013-04-18 21:08:00,43.3,35.6,29.65,WSW,248,16.0,28.0,74,0.00,,,1.53,meteohub,2013-04-19 02:08:00,
2013-04-18 21:13:00,43.2,35.4,29.65,West,270,21.0,32.0,74,0.00,,,1.53,meteohub,2013-04-19 02:13:00,
2013-04-18 21:18:00,43.2,35.8,29.65,West,270,40.0,40.0,75,0.00,,,1.53,meteohub,2013-04-19 02:18:00,
2013-04-18 21:23:00,43.0,35.6,29.65,SSW,202,9.0,40.0,75,0.00,,,1.53,meteohub,2013-04-19 02:23:00,
2013-04-18 21:28:00,42.6,35.6,29.65,SW,225,16.0,40.0,76,0.00,,,1.53,meteohub,2013-04-19 02:28:00,
2013-04-18 21:33:00,42.4,35.1,29.65,WSW,248,21.0,40.0,75,0.00,,,1.53,meteohub,2013-04-19 02:33:00,
2013-04-18 21:39:00,42.3,34.9,29.65,SW,225,10.0,32.0,75,0.00,,,1.53,meteohub,2013-04-19 02:39:00,
2013-04-18 21:44:00,42.1,34.2,29.65,WSW,248,11.0,32.0,73,0.00,,,1.53,meteohub,2013-04-19 02:44:00,
2013-04-18 21:49:00,42.1,34.2,29.65,West,270,12.0,32.0,73,0.00,,,1.53,meteohub,2013-04-19 02:49:00,
2013-04-18 21:54:00,41.7,33.8,29.65,SSE,158,31.0,31.0,73,0.00,,,1.53,meteohub,2013-04-19 02:54:00,
2013-04-18 21:59:00,41.0,33.1,29.65,WSW,248,20.0,33.0,73,0.00,,,1.53,meteohub,2013-04-19 02:59:00,
2013-04-18 22:04:00,40.8,33.3,29.65,WSW,248,14.0,33.0,74,0.00,,,1.53,meteohub,2013-04-19 03:04:00,
2013-04-18 22:09:00,40.6,33.4,29.65,East,90,14.0,33.0,75,0.00,,,1.53,meteohub,2013-04-19 03:09:00,
2013-04-18 22:14:00,40.6,33.6,29.65,West,270,22.0,39.0,76,0.00,,,1.53,meteohub,2013-04-19 03:14:00,
2013-04-18 22:19:00,40.6,33.4,29.65,WSW,248,11.0,39.0,75,0.00,,,1.53,meteohub,2013-04-19 03:19:00,
2013-04-18 22:24:00,40.3,32.4,29.65,West,270,9.0,33.0,73,0.00,,,1.53,meteohub,2013-04-19 03:24:00,
2013-04-18 22:29:00,39.9,32.0,29.65,SW,225,22.0,33.0,73,0.00,,,1.53,meteohub,2013-04-19 03:29:00,
2013-04-18 22:34:00,39.7,31.8,29.65,SW,225,19.0,39.0,73,0.00,,,1.53,meteohub,2013-04-19 03:34:00,
2013-04-18 22:39:00,39.6,32.0,29.65,WSW,248,23.0,39.0,74,0.00,,,1.53,meteohub,2013-04-19 03:39:00,
2013-04-18 22:44:00,39.6,32.0,29.65,NW,315,21.0,39.0,74,0.00,,,1.53,meteohub,2013-04-19 03:44:00,
2013-04-18 22:49:00,39.6,32.7,29.65,North,0,10.0,33.0,76,0.00,,,1.53,meteohub,2013-04-19 03:49:00,
2013-04-18 22:54:00,39.7,33.1,29.65,NE,45,10.0,33.0,77,0.00,,,1.53,meteohub,2013-04-19 03:54:00,
2013-04-18 22:59:00,39.7,33.1,29.65,West,270,19.0,32.0,77,0.00,,,1.53,meteohub,2013-04-19 03:59:00,
2013-04-18 23:01:00,39.7,33.1,29.65,SSE,158,7.0,29.0,77,0.00,,,1.53,meteohub,2013-04-19 04:01:00,
2013-04-18 23:06:00,39.4,32.5,29.65,North,0,10.0,29.0,76,0.00,,,1.53,meteohub,2013-04-19 04:06:00,
2013-04-18 23:11:00,39.4,32.2,29.65,West,270,24.0,29.0,75,0.00,,,1.53,meteohub,2013-04-19 04:11:00,
2013-04-18 23:16:00,39.0,31.5,29.65,West,270,14.0,32.0,74,0.00,,,1.53,meteohub,2013-04-19 04:16:00,
2013-04-18 23:21:00,39.0,31.8,29.65,WNW,292,17.0,32.0,75,0.00,,,1.53,meteohub,2013-04-19 04:21:00,
2013-04-18 23:26:00,38.8,31.6,29.65,ESE,112,6.0,32.0,75,0.00,,,1.53,meteohub,2013-04-19 04:26:00,
2013-04-18 23:32:00,38.7,31.8,29.65,WSW,248,31.0,31.0,76,0.00,,,1.53,meteohub,2013-04-19 04:32:00,
2013-04-18 23:37:00,38.5,31.6,29.65,South,180,22.0,36.0,76,0.00,,,1.53,meteohub,2013-04-19 04:37:00,
2013-04-18 23:42:00,38.1,31.3,29.65,West,270,32.0,36.0,76,0.00,,,1.53,meteohub,2013-04-19 04:42:00,
2013-04-18 23:47:00,38.1,31.6,29.65,West,270,9.0,37.0,77,0.00,,,1.53,meteohub,2013-04-19 04:47:00,
2013-04-18 23:52:00,37.9,31.1,29.65,West,270,13.0,37.0,76,0.00,,,1.53,meteohub,2013-04-19 04:52:00,
2013-04-18 23:57:00,37.9,31.1,29.65,West,270,18.0,37.0,76,0.00,,,1.53,meteohub,2013-04-19 04:57:00,